ISS (ZARYA) 1 25544U 98067A 25352.66763517 .00007358 00000+0 13842-3 0 9991 2 25544 51.6314 113.1238 0003181 267.6136 92.4488 15.49654558543778 CSS (TIANHE) 1 48274U 21035A 25352.92727218 .00021030 00000+0 26140-3 0 9992 2 48274 41.4683 339.1361 0007698 85.4974 274.6744 15.59443301264995 ISS (NAUKA) 1 49044U 21066A 25352.66763517 .00007358 00000+0 13842-3 0 9997 2 49044 51.6314 113.1238 0003181 267.6136 92.4488 15.49654558230446 FREGAT DEB 1 49271U 11037PF 25352.23842730 .00003914 00000+0 89537-2 0 9991 2 49271 51.6484 183.1727 0862315 235.6695 115.9626 12.34485936202619 CSS (WENTIAN) 1 53239U 22085A 25352.92727218 .00021030 00000+0 26140-3 0 9995 2 53239 41.4683 339.1361 0007698 85.4974 274.6744 15.59443301173845 CSS (MENGTIAN) 1 54216U 22143A 25352.92727218 .00021030 00000+0 26140-3 0 9996 2 54216 41.4683 339.1361 0007698 85.4974 274.6744 15.59443301158642 SHENZHOU-20 (SZ-20) 1 63632U 25082A 25352.92727218 .00021030 00000+0 26140-3 0 9993 2 63632 41.4683 339.1361 0007698 85.4974 274.6744 15.59443301255305 PROGRESS-MS 31 1 64751U 25146A 25352.66763517 .00007358 00000+0 13842-3 0 9992 2 64751 51.6314 113.1238 0003181 267.6136 92.4488 15.49654558 6753 TIANZHOU-9 1 64786U 25149A 25352.92727218 .00021030 00000+0 26140-3 0 9998 2 64786 41.4683 339.1361 0007698 85.4974 274.6744 15.59443301255306 CREW DRAGON 11 1 65077U 25166A 25352.66763517 .00007358 00000+0 13842-3 0 9996 2 65077 51.6314 113.1238 0003181 267.6136 92.4488 15.49654558 2144 DRAGON CRS-33 1 65304U 25186A 25352.66763517 .00007358 00000+0 13842-3 0 9991 2 65304 51.6314 113.1238 0003181 267.6136 92.4488 15.49654558 112 PROGRESS-MS 32 1 65586U 25204A 25352.66763517 .00007358 00000+0 13842-3 0 9994 2 65586 51.6314 113.1238 0003181 267.6136 92.4488 15.49654558 271 CYGNUS NG-23 1 65616U 25208A 25352.66763517 .00007358 00000+0 13842-3 0 9992 2 65616 51.6314 113.1238 0003181 267.6136 92.4488 15.49654558 220 DRAGONFLY 1 65729U 98067XH 25352.58353461 .00166206 00000+0 11293-2 0 9999 2 65729 51.6249 105.7955 0007166 314.6867 45.3548 15.73865471 14084 1998-067XK 1 65731U 98067XK 25352.60392310 .00090673 00000+0 83588-3 0 9992 2 65731 51.6292 107.4546 0004791 283.3796 76.6665 15.66848038 14061 RSP-03 1 65732U 98067XL 25352.53368180 .00121384 00000+0 97504-3 0 9990 2 65732 51.6263 106.9735 0005665 289.7816 70.2570 15.70075461 14071 GHS-01 1 65733U 98067XM 25352.90352596 .00206465 00000+0 11904-2 0 9999 2 65733 51.6277 103.4385 0007989 320.4925 39.5492 15.77485683 14153 YOTSUBA-KULOVER 1 65941U 98067XN 25352.41452413 .00066041 00000+0 79453-3 0 9993 2 65941 51.6285 111.4386 0001660 311.4961 48.5889 15.60208015 10748 BOTAN 1 65942U 98067XP 25352.40687507 .00105165 00000+0 10814-2 0 9993 2 65942 51.6278 110.6371 0002848 287.2475 72.8208 15.64050786 10755 E-KAGAKU-1 1 65943U 98067XQ 25352.35057484 .00070368 00000+0 84620-3 0 9996 2 65943 51.6302 111.7666 0001345 249.8249 110.2600 15.60193795 10732 HRC MONOBLOCK CAMERA 1 66052U 98067XR 25352.95182665 .00030942 00000+0 46534-3 0 9990 2 66052 51.6297 110.5221 0002633 211.9232 148.1600 15.54565744 9800 HTV-X1 1 66174U 25241A 25352.66763517 .00007358 00000+0 13842-3 0 9999 2 66174 51.6314 113.1238 0003181 267.6136 92.4488 15.49654558 512 SZ-21 MODULE 1 66515U 25246C 25352.35514958 .00025551 00000+0 27860-3 0 9992 2 66515 41.4774 341.7845 0005854 290.1533 69.8677 15.62772734 5326 SHENZHOU-22 1 66645U 25272A 25352.92727218 .00021030 00000+0 26140-3 0 9991 2 66645 41.4683 339.1361 0007698 85.4974 274.6744 15.59443301263570 SOYUZ-MS 28 1 66664U 25275A 25352.66763517 .00007358 00000+0 13842-3 0 9990 2 66664 51.6314 113.1238 0003181 267.6136 92.4488 15.49654558 1281 1998-067XS 1 66906U 98067XS 25352.59360331 .00023614 00000+0 40765-3 0 9994 2 66906 51.6311 113.3804 0003066 230.5170 129.5548 15.50877887 2528 1998-067XT 1 66907U 98067XT 25352.58674511 .00053950 00000+0 87659-3 0 9991 2 66907 51.6304 113.3340 0003941 262.1658 97.8884 15.52162368 2523 1998-067XU 1 66908U 98067XU 25352.58606995 .00054298 00000+0 87908-3 0 9996 2 66908 51.6306 113.3296 0003983 260.0245 100.0295 15.52259493 2520 SILVERSAT 1 66909U 98067XV 25352.58523640 .00059069 00000+0 95010-3 0 9996 2 66909 51.6304 113.3244 0003867 263.4051 96.6498 15.52406005 2523 1998-067XW 1 66910U 98067XW 25352.58346219 .00050492 00000+0 81329-3 0 9992 2 66910 51.6304 113.3129 0004322 240.7939 119.2619 15.52431880 2523 1998-067XX 1 66911U 98067XX 25352.64586867 .00063428 00000+0 10034-2 0 9992 2 66911 51.6301 112.9797 0004036 247.1524 112.9040 15.52835677 2520 1998-067XY 1 66912U 98067XY 25352.58918922 .00043076 00000+0 71421-3 0 9992 2 66912 51.6305 113.3494 0004078 255.7838 104.2699 15.51695277 2515